Location: Civry
(47.2902°N, 4.6156°E)
Time: 07:47:26
(UTC+00:00)

STARLINK-52 - Pass Details

Date: 09 April 2020
Orbit: 393 x 395 km, 53.0° (Epoch: 22 May)

Event Time Altitude Azimuth Distance (km) Brightness Sun altitude
Rises 19:11:09 0° 225° (SW) 2,281 7.1 -8.6°
Reaches altitude 10° 19:13:15 10° 220° (SW) 1,429 6.0 -9.0°
Maximum altitude 19:16:20 48° 145° (SE) 529 3.2 -9.5°
Drops below altitude 10° 19:19:27 10° 69° (ENE) 1,441 5.3 -9.9°
Enters shadow 19:19:56 - 68° (ENE) 1,632 5.6 -10.0°
